Bellingham, WA
on Sunday, January 27, 2013

Sunday
Previous Day Next Day
Daily Summary
 ActualAverageRecord
Temperature
Mean Temperature °F 40°F  
Max Temperature 42°F 47°F 58°F (1986)
Min Temperature 39°F 33°F 8°F (1957)
Degree Days
Heating Degree Days 24 25  
Month to date heating degree days 698  
Cooling Degree Days 0 0  
Month to date cooling degree days 0  
Year to date cooling degree days 0  
Moisture
Dew Point 38°F   
Average Humidity 90    
Maximum Humidity 100    
Minimum Humidity 81    
Precipitation
Precipitation 0.08 in 0.14 in 0.54 in (1967)
Month to date precipitation 4.11  
Year to date precipitation 4.11  
Wind
Wind Speed 6 mph   
Max Wind Speed 13 mph   
Max Gust Speed 20 mph   
Visibility 10 miles   
Events Rain   

Key: T is trace of precipitation, MM is missing value
Source: NWS Daily Summary
Time(PST)TemperatureDew PointHumidity Pressure Visibility Wind DirectionWind SpeedGust SpeedPrecipitationEvents Conditions
12:53 AM 41.0°F 39.0°F 93% 30.03 in 10.0 miles Calm Calm - N/A   Overcast
1:38 AM 39.2°F 39.2°F 100% 30.00 in 10.0 miles Calm Calm - N/A   Overcast
1:48 AM 39.2°F 39.2°F 100% 30.00 in 10.0 miles SSE 3.5 mph - N/A   Overcast
1:53 AM 39.9°F 39.0°F 97% 30.03 in 10.0 miles SSE 3.5 mph - N/A   Overcast
2:30 AM 39.2°F 37.4°F 93% 30.00 in 10.0 miles SSE 3.5 mph - 0.00 in Rain Light Rain
2:53 AM 39.9°F 37.9°F 93% 30.03 in 10.0 miles SSE 3.5 mph - 0.00 in   Overcast
3:14 AM 39.2°F 37.4°F 93% 30.00 in 10.0 miles SSE 4.6 mph - 0.00 in Rain Light Rain
3:46 AM 39.2°F 37.4°F 93% 30.00 in 5.0 miles ESE 3.5 mph - 0.02 in Rain Light Rain
3:53 AM 39.9°F 37.9°F 93% 30.03 in 7.0 miles Calm Calm - 0.02 in Rain Light Rain
4:53 AM 39.9°F 37.9°F 93% 30.03 in 10.0 miles Calm Calm - 0.00 in   Overcast
5:44 AM 41.0°F 37.4°F 87% 29.99 in 10.0 miles SSE 8.1 mph - N/A   Mostly Cloudy
5:53 AM 41.0°F 37.9°F 89% 30.02 in 10.0 miles South 6.9 mph - N/A   Mostly Cloudy
6:36 AM 41.0°F 37.4°F 87% 29.99 in 10.0 miles SSE 5.8 mph - N/A   Overcast
6:53 AM 42.1°F 37.9°F 85% 30.01 in 10.0 miles SSE 6.9 mph - N/A   Overcast
7:08 AM 42.8°F 37.4°F 81% 29.99 in 10.0 miles South 8.1 mph - N/A   Overcast
7:32 AM 42.8°F 37.4°F 81% 29.99 in 10.0 miles South 10.4 mph - N/A   Overcast
7:53 AM 42.1°F 37.9°F 85% 30.02 in 10.0 miles South 9.2 mph - N/A   Overcast
8:04 AM 42.8°F 37.4°F 81% 29.99 in 10.0 miles South 10.4 mph - N/A   Overcast
8:21 AM 42.8°F 37.4°F 81% 29.99 in 10.0 miles South 9.2 mph - N/A   Overcast
8:51 AM 42.8°F 39.2°F 87% 30.00 in 10.0 miles SSE 11.5 mph - N/A   Overcast
8:53 AM 42.1°F 39.0°F 89% 30.03 in 10.0 miles SSE 11.5 mph - N/A   Overcast
8:56 AM 42.8°F 39.2°F 87% 30.00 in 10.0 miles SSE 10.4 mph - 0.00 in Rain Light Rain
9:30 AM 41.0°F 39.2°F 93% 30.00 in 10.0 miles SSE 10.4 mph - 0.00 in   Overcast
9:37 AM 41.0°F 37.4°F 87% 30.00 in 10.0 miles SSE 9.2 mph - 0.00 in   Overcast
9:53 AM 42.1°F 37.9°F 85% 30.03 in 10.0 miles SSE 9.2 mph - 0.00 in   Overcast
10:53 AM 39.9°F 37.0°F 89% 30.04 in 8.0 miles SSE 11.5 mph - 0.01 in Rain Light Rain
11:53 AM 39.9°F 37.0°F 89% 30.03 in 10.0 miles SSE 12.7 mph 19.6 mph 0.00 in Rain Light Rain
12:53 PM 39.9°F 37.9°F 93% 30.01 in 9.0 miles SSE 10.4 mph - 0.00 in Rain Light Rain
1:41 PM 39.2°F 37.4°F 93% 29.97 in 8.0 miles SSE 11.5 mph - 0.02 in Rain Light Rain
1:53 PM 39.9°F 37.0°F 89% 29.99 in 8.0 miles SSE 10.4 mph - 0.03 in Rain Light Rain
2:27 PM 39.2°F 37.4°F 93% 29.97 in 7.0 miles SSE 11.5 mph - 0.00 in Rain Light Rain
2:53 PM 39.9°F 37.9°F 93% 29.99 in 6.0 miles SSE 11.5 mph - 0.02 in Rain Light Rain
3:53 PM 41.0°F 37.9°F 89% 29.99 in 10.0 miles South 9.2 mph - 0.00 in Rain Light Rain
4:21 PM 41.0°F 37.4°F 87% 29.96 in 10.0 miles South 10.4 mph - 0.00 in   Overcast
4:33 PM 41.0°F 37.4°F 87% 29.96 in 10.0 miles SSE 10.4 mph - 0.00 in   Overcast
4:53 PM 41.0°F 37.9°F 89% 29.99 in 10.0 miles SSE 10.4 mph - 0.00 in   Overcast
5:53 PM 39.9°F 37.0°F 89% 29.99 in 10.0 miles SSE 8.1 mph - N/A   Overcast
6:53 PM 39.9°F 37.0°F 89% 29.99 in 10.0 miles SSE 5.8 mph - 0.00 in   Overcast
7:53 PM 39.9°F 37.0°F 89% 29.99 in 10.0 miles SSE 8.1 mph - N/A   Overcast
8:53 PM 39.9°F 37.9°F 93% 29.99 in 10.0 miles SE 6.9 mph - 0.00 in   Overcast
9:53 PM 39.9°F 37.0°F 89% 29.98 in 10.0 miles South 6.9 mph - N/A   Overcast
10:53 PM 39.9°F 37.0°F 89% 29.99 in 10.0 miles SSE 5.8 mph - N/A   Overcast
11:24 PM 39.2°F 37.4°F 93% 29.97 in 10.0 miles SSE 6.9 mph - N/A   Overcast
11:53 PM 39.9°F 37.0°F 89% 30.00 in 10.0 miles South 4.6 mph - N/A   Overcast
Moon Phase
Jan. 27 Feb. 03 Feb. 10 Feb. 17 Feb. 25
Sunrise:07:46 AM (PST) Moon Rise:06:09 PM (PST)1/27
Sunset:05:00 PM (PST) Moon Set:07:34 AM (PST)1/27

Copyright © 2014 The Weather Underground, Inc.